Shawnee, OK

7:18 PM CDT on August 31, 2016 (GMT -0500)
Shawnee Municipal

Weather History for KSNL - November, 2011

Change the Weather History Date:

Saturday, November 26, 2011

  Actual Average (KTIK) Record (KTIK)
Temperature  
Mean Temperature 53 °F -  
Max Temperature 60 °F 54 °F 69 °F (1998)
Min Temperature 46 °F 36 °F 23 °F (1996)
Degree Days  
Heating Degree Days 12    
Growing Degree Days 3 (Base 50)    
Moisture  
Dew Point 46 °F    
Average Humidity 79    
Maximum Humidity 94    
Minimum Humidity 53    
Precipitation  
Precipitation 0.23 in - - ()
Sea Level Pressure  
Sea Level Pressure 29.95 in    
Wind  
Wind Speed 16 mph (NW)    
Max Wind Speed 30 mph    
Max Gust Speed 41 mph    
Visibility 9 miles    
Events Rain    
Averages and records for this station are not official NWS values.
T = Trace of Precipitation, MM = Missing Value Source: NWS Daily Summary

Daily Weather History Graph

Daily Weather History Graph

Search for Another Location

Airport or City:

Trip Planner

Search our weather history database for the weather conditions in past years. The results will help you decide how hot, cold, wet, or windy it might be!

Date:

Astronomy

Nov. 26, 2011 Rise Set
Actual Time 7:13 AM CST 5:16 PM CST
Civil Twilight 6:45 AM CST 5:44 PM CST
Nautical Twilight 6:14 AM CST 6:15 PM CST
Astronomical Twilight 5:44 AM CST 6:45 PM CST
Moon 8:43 AM CST (11/26) 6:50 PM CST (11/26)
Length of Visible Light 10h 58m
Length of Day
10h 02m
Waxing Crescent, 3% of the Moon is Illuminated
Nov 26
Waxing Crescent
Dec 2
First Quarter
Dec 10
Full
Dec 17
Last Quarter
Dec 24
New

Hourly Weather History & Observations

Time (CST) Temp. Windchill Dew Point Humidity Pressure Visibility Wind Dir Wind Speed Gust Speed Precip Events Conditions
12:15 AM 60.8 °F - 55.4 °F 82% 29.80 in 10.0 mi SSE 15.0 mph 19.6 mph N/A   Light Drizzle
12:55 AM 60.8 °F - 55.4 °F 82% 29.79 in 10.0 mi South 12.7 mph 18.4 mph N/A   Light Drizzle
1:15 AM 60.8 °F - 55.4 °F 82% 29.79 in 10.0 mi South 11.5 mph 18.4 mph N/A Rain Rain
1:35 AM 59.0 °F - 55.4 °F 88% 29.78 in 10.0 mi South 11.5 mph 16.1 mph 0.02 in Rain Light Rain
1:55 AM 59.0 °F - 55.4 °F 88% 29.78 in 10.0 mi South 11.5 mph 18.4 mph 0.03 in Rain Light Rain
2:15 AM 59.0 °F - 55.4 °F 88% 29.78 in 7.0 mi South 11.5 mph 16.1 mph 0.04 in Rain Rain
2:35 AM 59.0 °F - 55.4 °F 88% 29.79 in 10.0 mi South 13.8 mph 19.6 mph 0.05 in Rain Rain
2:55 AM 59.0 °F - 55.4 °F 88% 29.78 in 10.0 mi South 17.3 mph 23.0 mph 0.05 in   Overcast
3:15 AM 59.0 °F - 57.2 °F 94% 29.78 in 10.0 mi South 15.0 mph 21.9 mph N/A   Overcast
3:35 AM 59.0 °F - 57.2 °F 94% 29.78 in 10.0 mi South 13.8 mph 20.7 mph N/A   Overcast
3:55 AM 59.0 °F - 57.2 °F 94% 29.77 in 10.0 mi South 12.7 mph 17.3 mph N/A   Overcast
4:15 AM 59.0 °F - 57.2 °F 94% 29.77 in 10.0 mi South 9.2 mph - N/A   Overcast
4:35 AM 60.8 °F - 59.0 °F 94% 29.77 in 10.0 mi South 8.1 mph - N/A   Overcast
4:55 AM 60.8 °F - 59.0 °F 94% 29.77 in 10.0 mi South 9.2 mph - N/A   Overcast
5:15 AM 60.8 °F - 59.0 °F 94% 29.77 in 10.0 mi SSW 9.2 mph - N/A   Overcast
5:35 AM 60.8 °F - 57.2 °F 88% 29.78 in 10.0 mi SW 9.2 mph - N/A   Overcast
6:15 AM 60.8 °F - 57.2 °F 88% 29.78 in 10.0 mi SSW 6.9 mph - N/A   Overcast
6:35 AM 60.8 °F - 57.2 °F 88% 29.78 in 7.0 mi South 10.4 mph - 0.02 in Rain Heavy Rain
6:55 AM 59.0 °F - 57.2 °F 94% 29.79 in 10.0 mi SSW 8.1 mph - 0.04 in   Overcast
7:15 AM 53.6 °F - 51.8 °F 94% 29.82 in 10.0 mi NNW 29.9 mph - N/A   Overcast
7:35 AM 53.6 °F - 51.8 °F 94% 29.85 in 7.0 mi NNW 23.0 mph 32.2 mph N/A Rain Heavy Rain
7:55 AM 51.8 °F - 50.0 °F 94% 29.87 in 7.0 mi NNW 18.4 mph 31.1 mph 0.02 in Rain Rain
8:15 AM 51.8 °F - 50.0 °F 94% 29.88 in 4.0 mi North 18.4 mph 25.3 mph 0.03 in Rain Rain
8:35 AM 51.8 °F - 50.0 °F 94% 29.90 in 7.0 mi NNW 18.4 mph - 0.05 in Rain Rain
8:55 AM 51.8 °F - 50.0 °F 94% 29.91 in 5.0 mi NNW 20.7 mph 28.8 mph 0.07 in Rain Rain
9:15 AM 51.8 °F - 50.0 °F 94% 29.93 in 7.0 mi NNW 17.3 mph 24.2 mph N/A Rain Light Rain
9:35 AM 51.8 °F - 50.0 °F 94% 29.94 in 7.0 mi NNW 19.6 mph 24.2 mph 0.01 in Rain Light Rain
9:55 AM 50.0 °F - 44.6 °F 82% 29.98 in 10.0 mi NNW 23.0 mph 33.4 mph 0.01 in Rain Light Rain
10:15 AM 50.0 °F - 44.6 °F 82% 29.99 in 10.0 mi NNW 25.3 mph 32.2 mph N/A   Overcast
10:35 AM 50.0 °F - 44.6 °F 82% 29.99 in 10.0 mi NNW 23.0 mph 33.4 mph N/A   Overcast
10:55 AM 50.0 °F - 44.6 °F 82% 30.00 in 10.0 mi North 20.7 mph 27.6 mph N/A   Overcast
11:35 AM 46.4 °F 37.7 °F 42.8 °F 87% 30.01 in 10.0 mi NNW 26.5 mph 34.5 mph N/A   Light Drizzle
11:55 AM 46.4 °F 37.5 °F 41.0 °F 81% 30.01 in 10.0 mi North 27.6 mph 41.4 mph N/A   Light Drizzle
12:15 PM 46.4 °F 38.3 °F 41.0 °F 81% 30.01 in 10.0 mi North 23.0 mph 32.2 mph N/A   Light Drizzle
12:35 PM 48.2 °F - 42.8 °F 82% 30.01 in 10.0 mi North 28.8 mph 34.5 mph N/A Rain Light Rain
12:55 PM 46.4 °F 38.1 °F 39.2 °F 76% 30.02 in 10.0 mi North 24.2 mph 34.5 mph N/A   Light Drizzle
1:15 PM 50.0 °F - 41.0 °F 71% 30.02 in 10.0 mi North 23.0 mph 35.7 mph N/A Rain Light Rain
1:35 PM 50.0 °F - 37.4 °F 62% 30.03 in 10.0 mi North 27.6 mph 38.0 mph N/A   Mostly Cloudy
1:55 PM 50.0 °F - 37.4 °F 62% 30.03 in 10.0 mi NNW 23.0 mph 32.2 mph N/A   Overcast
2:15 PM 50.0 °F - 39.2 °F 66% 30.04 in 10.0 mi North 18.4 mph 39.1 mph N/A Rain Light Rain
2:35 PM 46.4 °F 39.2 °F 37.4 °F 71% 30.05 in 10.0 mi North 18.4 mph 27.6 mph N/A Rain Light Rain
2:55 PM 46.4 °F 38.1 °F 37.4 °F 71% 30.06 in 10.0 mi North 24.2 mph 29.9 mph N/A Rain Light Rain
3:15 PM 46.4 °F 39.0 °F 41.0 °F 81% 30.07 in 10.0 mi North 19.6 mph 27.6 mph N/A Rain Light Rain
3:55 PM 46.4 °F 37.9 °F 37.4 °F 71% 30.09 in 10.0 mi North 25.3 mph 29.9 mph 0.01 in Rain Rain
4:15 PM 46.4 °F 39.5 °F 37.4 °F 71% 30.09 in 10.0 mi North 17.3 mph 27.6 mph N/A   Light Drizzle
4:55 PM 50.0 °F - 37.4 °F 62% 30.11 in 10.0 mi North 23.0 mph 32.2 mph N/A Rain Light Rain
5:15 PM 50.0 °F - 35.6 °F 58% 30.11 in 10.0 mi NNW 24.2 mph 33.4 mph N/A Rain Light Rain
5:35 PM 50.0 °F - 35.6 °F 58% 30.12 in 10.0 mi NNW 20.7 mph 31.1 mph N/A   Scattered Clouds
5:55 PM 50.0 °F - 35.6 °F 58% 30.13 in 10.0 mi NNW 19.6 mph 26.5 mph N/A   Clear
6:15 PM 50.0 °F - 35.6 °F 58% 30.14 in 10.0 mi North 23.0 mph 28.8 mph N/A   Clear
6:35 PM 50.0 °F - 35.6 °F 58% 30.15 in 10.0 mi North 16.1 mph 25.3 mph N/A   Clear
6:55 PM 50.0 °F - 35.6 °F 58% 30.17 in 10.0 mi North 12.7 mph - N/A   Clear
7:15 PM 50.0 °F - 35.6 °F 58% 30.17 in 10.0 mi NNW 17.3 mph 25.3 mph N/A   Clear
7:35 PM 50.0 °F - 35.6 °F 58% 30.18 in 10.0 mi NNW 18.4 mph 25.3 mph N/A   Clear
7:55 PM 48.2 °F - 32.0 °F 54% 30.19 in 10.0 mi North 21.9 mph 31.1 mph N/A   Clear
8:55 PM 46.4 °F 38.5 °F 30.2 °F 53% 30.22 in 10.0 mi North 21.9 mph 29.9 mph N/A   Clear
9:15 PM 46.4 °F 38.5 °F 30.2 °F 53% 30.23 in 10.0 mi North 21.9 mph 27.6 mph N/A   Clear
9:35 PM 44.6 °F 36.6 °F 28.4 °F 53% 30.24 in 10.0 mi North 19.6 mph 26.5 mph N/A   Scattered Clouds
9:55 PM 44.6 °F 36.4 °F 28.4 °F 53% 30.25 in 10.0 mi NNW 20.7 mph 26.5 mph N/A   Scattered Clouds
10:35 PM 42.8 °F 34.8 °F 26.6 °F 53% 30.26 in 10.0 mi NNW 17.3 mph 29.9 mph N/A   Clear
10:55 PM 42.8 °F 33.8 °F 24.8 °F 49% 30.26 in 10.0 mi North 21.9 mph 27.6 mph N/A   Clear
11:35 PM 41.0 °F 31.9 °F 23.0 °F 49% 30.26 in 10.0 mi North 19.6 mph 26.5 mph N/A   Clear
11:55 PM 41.0 °F 32.2 °F 23.0 °F 49% 30.26 in 10.0 mi North 18.4 mph - N/A   Clear